Meteo pe oră la Dachne

Astăzi, 23 Aprilie, Vineri

Timp Temperatura Precipitaţii Vânt Presiune Umiditate
00:00 +2°C° 0 mm 3 m/s 744 mmHg 86%
01:00 +2°C° 0 mm 3 m/s 744 mmHg 85%
02:00 +1°C° 0 mm 3 m/s 744 mmHg 82%
03:00 +1°C° 0 mm 3 m/s 744 mmHg 83%
04:00 0°C° 0 mm 3 m/s 744 mmHg 84%
05:00 0°C° 0 mm 3 m/s 744 mmHg 85%
06:00 0°C° 0 mm 4 m/s 745 mmHg 77%
07:00 +3°C° 0 mm 4 m/s 745 mmHg 70%
08:00 +3°C° 0 mm 5 m/s 745 mmHg 63%
09:00 +5°C° 0 mm 5 m/s 745 mmHg 59%
10:00 +5°C° 0 mm 6 m/s 745 mmHg 55%
11:00 +7°C° 0 mm 6 m/s 745 mmHg 51%
12:00 +8°C° 0.1 mm 7 m/s 745 mmHg 49%
13:00 +8°C° 0.1 mm 7 m/s 745 mmHg 47%
14:00 +8°C° 0.1 mm 7 m/s 745 mmHg 46%
15:00 +8°C° 0.1 mm 7 m/s 745 mmHg 49%
16:00 +7°C° 0.1 mm 6 m/s 745 mmHg 52%
17:00 +7°C° 0.1 mm 6 m/s 745 mmHg 55%
18:00 +5°C° 0.1 mm 5 m/s 745 mmHg 61%
19:00 +4°C° 0.1 mm 4 m/s 745 mmHg 67%
20:00 +3°C° 0.1 mm 3 m/s 746 mmHg 74%
21:00 +2°C° 0 mm 3 m/s 746 mmHg 78%
22:00 +2°C° 0 mm 3 m/s 746 mmHg 81%
23:00 +2°C° 0 mm 3 m/s 746 mmHg 85%

Mâine, 24 Aprilie, Sâmbătă

Timp Temperatura Precipitaţii Vânt Presiune Umiditate
00:00 +1°C° 0 mm 4 m/s 746 mmHg 82%
01:00 +1°C° 0 mm 4 m/s 746 mmHg 80%
02:00 +1°C° 0 mm 4 m/s 746 mmHg 77%
03:00 0°C° 0 mm 4 m/s 746 mmHg 79%
04:00 -1°C° 0 mm 4 m/s 747 mmHg 80%
05:00 -1°C° 0 mm 3 m/s 747 mmHg 82%
06:00 -1°C° 0 mm 4 m/s 747 mmHg 77%
07:00 0°C° 0 mm 5 m/s 747 mmHg 73%
08:00 +2°C° 0 mm 5 m/s 747 mmHg 68%
09:00 +3°C° 0.1 mm 6 m/s 747 mmHg 60%
10:00 +4°C° 0.1 mm 6 m/s 747 mmHg 52%
11:00 +5°C° 0.1 mm 7 m/s 747 mmHg 45%
12:00 +6°C° 0 mm 7 m/s 747 mmHg 44%
13:00 +7°C° 0 mm 6 m/s 747 mmHg 44%
14:00 +7°C° 0 mm 6 m/s 747 mmHg 43%
15:00 +7°C° 0 mm 6 m/s 747 mmHg 44%
16:00 +7°C° 0 mm 5 m/s 746 mmHg 45%
17:00 +7°C° 0 mm 5 m/s 746 mmHg 46%
18:00 +7°C° 0 mm 3 m/s 746 mmHg 52%
19:00 +5°C° 0 mm 2 m/s 746 mmHg 59%
20:00 +5°C° 0 mm 1 m/s 746 mmHg 65%
21:00 +5°C° 0 mm 1 m/s 746 mmHg 67%
22:00 +3°C° 0 mm 2 m/s 746 mmHg 69%
23:00 +2°C° 0 mm 3 m/s 746 mmHg 71%

Poimâine, 25 Aprilie, Duminică

Timp Temperatura Precipitaţii Vânt Presiune Umiditate
00:00 +2°C° 0.1 mm 3 m/s 745 mmHg 77%
01:00 +2°C° 0.1 mm 3 m/s 745 mmHg 83%
02:00 +2°C° 0.1 mm 3 m/s 745 mmHg 88%
03:00 +1°C° 0.1 mm 4 m/s 745 mmHg 89%
04:00 +1°C° 0.1 mm 4 m/s 745 mmHg 89%
05:00 0°C° 0.1 mm 5 m/s 745 mmHg 89%
06:00 0°C° 0 mm 5 m/s 745 mmHg 83%
07:00 0°C° 0 mm 5 m/s 746 mmHg 77%
08:00 0°C° 0 mm 5 m/s 746 mmHg 71%
09:00 +1°C° 0 mm 5 m/s 746 mmHg 63%
10:00 +2°C° 0 mm 5 m/s 746 mmHg 55%
11:00 +3°C° 0 mm 5 m/s 746 mmHg 47%
12:00 +5°C° 0 mm 5 m/s 746 mmHg 47%
13:00 +5°C° 0 mm 5 m/s 746 mmHg 47%
14:00 +5°C° 0 mm 5 m/s 746 mmHg 47%
15:00 +5°C° 0 mm 5 m/s 746 mmHg 48%
16:00 +5°C° 0 mm 5 m/s 746 mmHg 48%
17:00 +5°C° 0 mm 5 m/s 746 mmHg 48%
18:00 +4°C° 0.1 mm 4 m/s 746 mmHg 55%
19:00 +3°C° 0.1 mm 3 m/s 746 mmHg 62%
20:00 +2°C° 0.1 mm 2 m/s 746 mmHg 69%
21:00 +2°C° 0 mm 2 m/s 745 mmHg 72%
22:00 +1°C° 0 mm 2 m/s 745 mmHg 75%
23:00 -1°C° 0 mm 3 m/s 745 mmHg 77%

26 Aprilie, Luni

Timp Temperatura Precipitaţii Vânt Presiune Umiditate
00:00 -1°C° 0 mm 3 m/s 745 mmHg 79%
01:00 -1°C° 0 mm 3 m/s 745 mmHg 81%
02:00 -2°C° 0 mm 3 m/s 745 mmHg 82%
03:00 -2°C° 0.1 mm 3 m/s 745 mmHg 86%
04:00 -2°C° 0.1 mm 3 m/s 745 mmHg 89%
05:00 -2°C° 0.1 mm 3 m/s 745 mmHg 92%
06:00 -2°C° 0.1 mm 4 m/s 745 mmHg 87%
07:00 -1°C° 0.1 mm 4 m/s 745 mmHg 83%
08:00 0°C° 0.1 mm 4 m/s 745 mmHg 79%
09:00 +1°C° 0.1 mm 5 m/s 745 mmHg 68%
10:00 +2°C° 0.1 mm 5 m/s 745 mmHg 56%
11:00 +4°C° 0.1 mm 6 m/s 745 mmHg 45%
12:00 +5°C° 0 mm 5 m/s 745 mmHg 44%
13:00 +5°C° 0 mm 5 m/s 745 mmHg 44%
14:00 +5°C° 0 mm 5 m/s 744 mmHg 43%
15:00 +5°C° 0 mm 5 m/s 744 mmHg 44%
16:00 +5°C° 0 mm 4 m/s 744 mmHg 45%
17:00 +5°C° 0 mm 4 m/s 743 mmHg 45%
18:00 +4°C° 0 mm 3 m/s 743 mmHg 52%
19:00 +3°C° 0 mm 3 m/s 743 mmHg 59%
20:00 +3°C° 0 mm 2 m/s 743 mmHg 65%
21:00 +2°C° 0 mm 2 m/s 743 mmHg 67%
22:00 +2°C° 0 mm 2 m/s 743 mmHg 69%
23:00 +1°C° 0 mm 2 m/s 743 mmHg 71%

27 Aprilie, Marţi

Timp Temperatura Precipitaţii Vânt Presiune Umiditate
00:00 +1°C° 0 mm 2 m/s 743 mmHg 75%
01:00 -1°C° 0 mm 3 m/s 743 mmHg 79%
02:00 -1°C° 0 mm 3 m/s 743 mmHg 83%
03:00 -2°C° 0 mm 3 m/s 743 mmHg 85%
04:00 -2°C° 0 mm 3 m/s 743 mmHg 86%
05:00 -2°C° 0 mm 3 m/s 743 mmHg 88%
06:00 -1°C° 0 mm 3 m/s 743 mmHg 80%
07:00 +1°C° 0 mm 3 m/s 743 mmHg 72%
08:00 +3°C° 0 mm 4 m/s 743 mmHg 64%
09:00 +4°C° 0 mm 4 m/s 743 mmHg 58%
10:00 +7°C° 0 mm 3 m/s 743 mmHg 53%
11:00 +8°C° 0 mm 3 m/s 743 mmHg 48%
12:00 +9°C° 0 mm 3 m/s 743 mmHg 47%
13:00 +9°C° 0 mm 3 m/s 743 mmHg 46%
14:00 +10°C° 0 mm 3 m/s 742 mmHg 46%
15:00 +10°C° 0 mm 2 m/s 742 mmHg 46%
16:00 +10°C° 0 mm 2 m/s 742 mmHg 46%
17:00 +11°C° 0 mm 1 m/s 742 mmHg 46%
18:00 +10°C° 0 mm 1 m/s 742 mmHg 52%
19:00 +7°C° 0 mm 2 m/s 742 mmHg 58%
20:00 +6°C° 0 mm 2 m/s 742 mmHg 64%
21:00 +5°C° 0 mm 2 m/s 742 mmHg 65%
22:00 +4°C° 0 mm 3 m/s 741 mmHg 66%
23:00 +4°C° 0 mm 3 m/s 741 mmHg 68%

28 Aprilie, Miercuri

Timp Temperatura Precipitaţii Vânt Presiune Umiditate
00:00 +3°C° 0 mm 3 m/s 741 mmHg 69%
01:00 +3°C° 0 mm 3 m/s 740 mmHg 70%
02:00 +3°C° 0 mm 4 m/s 740 mmHg 71%
03:00 +3°C° 0 mm 4 m/s 739 mmHg 70%
04:00 +2°C° 0 mm 5 m/s 739 mmHg 70%
05:00 +3°C° 0 mm 5 m/s 738 mmHg 69%
06:00 +4°C° 0 mm 6 m/s 738 mmHg 69%
07:00 +5°C° 0 mm 6 m/s 738 mmHg 69%
08:00 +7°C° 0 mm 6 m/s 737 mmHg 70%
09:00 +7°C° 0.2 mm 6 m/s 737 mmHg 72%
10:00 +8°C° 0.2 mm 6 m/s 737 mmHg 74%
11:00 +8°C° 0.2 mm 6 m/s 737 mmHg 77%
12:00 +9°C° 0.3 mm 5 m/s 736 mmHg 77%
13:00 +9°C° 0.3 mm 5 m/s 736 mmHg 77%
14:00 +11°C° 0.3 mm 4 m/s 735 mmHg 77%
15:00 +10°C° 0.9 mm 5 m/s 735 mmHg 82%
16:00 +9°C° 0.9 mm 5 m/s 735 mmHg 86%
17:00 +9°C° 0.9 mm 5 m/s 734 mmHg 91%
18:00 +9°C° 0.5 mm 5 m/s 734 mmHg 92%
19:00 +9°C° 0.5 mm 5 m/s 734 mmHg 92%
20:00 +9°C° 0.5 mm 5 m/s 734 mmHg 93%
21:00 +8°C° 0.3 mm 5 m/s 734 mmHg 93%
22:00 +8°C° 0.3 mm 5 m/s 734 mmHg 93%
23:00 +8°C° 0.3 mm 4 m/s 735 mmHg 94%
Arată mai mult

Formular de consimțământ

Meteoprog și furnizorii noștri de servicii pot stoca și accesa date personale, precum cookies, identificatori de dispozitiv sau alte tehnologii similare pe dispozitivul dumneavoastră și procesa astfel de date pentru a personaliza conținutul și reclamele, dar și pentru a oferi caracteristici de social media și pentru a analiza traficul.

  • Stocarea și/sau accesarea informațiilor pe dispozitivul dumneavoastră

    Cookies, identificatori de dispozitiv sau alte informații pot fi stocate sau accesate pe dispozitiv în scopurile indicate mai sus.

  • Reclame și conținut personalizat, evaluarea reclamelor și a conținutului, informații despre audiențe și dezvoltarea produselor

    Reclamele și conținutul pot fi personalizate pe baza unui profil. Pot fi adăugate date suplimentare pentru a personaliza mai bine reclamele și conținutul. Performanța reclamelor și conținutului poate fi măsurată. Pot fi obținute informații despre utilizatorii care au văzut reclamele și conținutul. Aceste date pot fi utilizate pentru a dezvolta sau îmbunătăți experiența utilizatorilor, sistemele și software-ul.

Dând clic pe ‘Sunt de acord’, permiteți utilizarea cookie-urilor menționate, a identificatorilor de dispozitiv, balizelor web sau altor tehnologii similare. Setările pot fi modificate din browser-ul dispozitivului dumneavoastră.

În anumite scopuri, interesele legitime pot prima asupra consimțământului. Puteți citi mai multe informații în acest sens în Politica privind Confidențialitatea Datelor și Cookie.